SCP
0 0 0 0 0 0 0 0 0 0 0 0 0 0 0 0 0 0 0 0 1 1 1 1 1 1 1 0 0 0 0 0 0 0 0 0 0 0 0 0 0 0 0 0 0 0 0 0 0
0 0 0 0 0 0 0 0 0 0 0 0 0 0 0 0 0 0 0 0 1 1 1 1 1 1 1 0 0 0 0 0 0 0 0 0 0 0 0 0 0 0 0 0 0 0 0 0 0
0 0 0 0 0 0 0 0 0 0 0 0 0 0 0 0 0 0 0 1 1 1 1 1 1 1 1 0 0 0 0 0 0 0 0 0 0 0 0 0 0 0 0 0 0 0 0 0 0
0 0 0 0 0 0 0 0 0 0 0 0 0 0 0 0 0 0 0 1 1 1 1 1 1 1 1 0 0 0 0 0 0 0 0 0 0 0 0 0 0 0 0 0 0 0 0 0 0
0 0 0 0 0 0 0 0 0 0 0 0 0 0 0 0 0 0 1 1 1 1 1 1 1 1 1 0 0 0 0 0 0 0 0 0 0 0 0 0 0 0 0 0 0 0 0 0 0
0 0 0 0 0 0 0 0 0 0 0 0 0 0 0 0 0 1 1 1 1 1 1 1 1 1 1 0 0 0 0 0 0 0 0 0 0 0 0 0 0 0 0 0 0 0 0 0 0
0 0 0 0 0 0 0 0 0 0 0 0 0 0 0 0 1 1 1 1 1 1 1 1 1 1 1 0 0 0 0 0 0 0 0 0 0 0 0 0 0 0 0 0 0 0 0 0 0
0 0 0 0 0 0 0 0 0 0 0 0 0 0 0 1 1 1 1 1 1 1 1 1 1 1 0 0 0 0 0 0 0 0 0 0 0 0 0 0 0 0 0 0 0 0 0 0 0
0 0 0 0 0 0 0 0 0 0 0 0 1 1 1 1 1 1 1 1 1 1 1 1 1 1 0 0 0 0 0 0 0 0 0 0 0 0 0 0 0 0 0 0 0 0 0 0 0
0 0 0 0 0 0 0 0 0 0 0 1 1 1 1 1 1 1 1 1 1 1 1 1 1 0 0 0 0 0 0 0 0 0 0 0 0 0 0 0 0 0 0 0 0 0 0 0 0
0 0 0 0 0 0 0 0 0 0 0 0 1 1 1 2 1 1 1 1 1 1 1 0 0 0 0 0 0 0 0 0 0 0 0 0 0 0 0 0 0 0 0 0 0 0 0 0 0
0 0 0 0 0 0 0 0 0 0 0 1 1 1 2 1 1 1 1 1 1 0 0 0 0 0 0 0 0 0 0 0 0 0 0 0 0 0 0 0 0 0 0 0 0 0 0 0 0
0 0 0 0 0 0 0 0 0 0 0 1 1 1 2 1 1 1 1 1 0 0 0 0 0 0 0 0 0 0 0 0 0 0 0 0 0 0 0 0 0 0 0 0 0 0 0 0 0
0 0 0 0 0 0 0 0 0 0 1 1 1 1 1 1 1 1 1 1 0 0 0 0 0 0 0 0 0 0 0 0 0 0 0 0 0 0 0 0 0 0 0 0 0 0 0 0 0
0 0 0 0 0 0 0 0 0 0 1 1 1 1 1 1 1 1 1 0 0 0 0 0 0 0 0 0 0 0 0 0 0 0 0 0 0 0 0 0 0 0 0 0 0 0 0 0 0
0 0 0 0 0 0 0 0 0 0 0 1 1 1 1 1 1 1 1 0 0 0 0 0 0 0 0 0 0 0 0 0 0 0 0 0 0 0 0 0 0 0 0 0 0 0 0 0 0
0 0 0 0 0 0 0 0 0 0 0 1 1 1 1 1 0 0 0 0 0 0 0 0 0 0 0 0 0 0 0 0 0 0 0 0 0 0 0 0 0 0 0 0 0 0 0 0 0
0 0 0 0 0 0 0 0 0 0 0 0 0 1 1 0 0 0 0 0 0 0 0 0 0 0 0 0 0 0 0 0 0 0 0 0 0 0 0 0 0 0 0 0 0 0 0 0 0
0 0 0 0 0 0 0 0 0 0 0 0 0 0 0 0 0 0 0 0 0 0 0 0 0 0 0 0 0 0 0 0 0 0 0 0 0 0 0 0 0 0 0 0 0 0 0 0 0
0 0 0 0 0 0 0 0 0 0 0 0 0 0 0 0 0 0 0 0 0 0 0 0 0 0 0 0 0 0 0 0 0 0 0 0 0 0 0 0 0 0 0 0 0 0 0 0 0
0 0 0 0 0 0 0 0 0 0 0 0 0 0 0 0 0 0 0 0 0 0 0 0 0 0 0 0 0 0 0 0 0 0 0 0 0 0 0 0 0 0 0 0 0 0 0 0 0
0 0 0 0 0 0 0 0 0 0 0 0 0 0 0 0 0 0 0 0 0 0 0 0 0 0 0 0 0 0 0 0 0 -0 0 0 0 0 0 0 0 0 0 0 0 0 0 0 0
0 0 0 0 0 0 0 0 0 0 0 0 0 0 0 0 0 0 0 0 0 0 0 0 0 0 0 0 0 0 0 0 0 -0 -0 0 0 0 0 0 0 0 0 0 0 0 0 0 0
0 0 0 0 0 0 0 0 0 0 0 0 0 0 0 0 0 0 0 0 0 0 0 0 0 0 0 0 0 0 0 0 0 0 0 0 0 0 0 0 0 0 0 0 0 0 0 0 0
0 0 0 0 0 0 0 0 0 0 0 0 0 0 0 0 0 0 0 -0 -0 -0 0 0 0 0 0 0 0 0 0 0 0 0 0 0 0 0 0 0 0 0 0 0 0 0 0 0 0
0 0 0 0 0 0 0 0 0 0 0 0 0 0 0 0 0 -0 -0 -0 -0 -0 0 0 0 0 0 0 0 0 0 0 0 0 0 0 0 0 0 0 0 0 0 0 0 0 0 0 0
0 0 0 0 0 0 0 0 0 0 0 0 0 0 0 0 0 -0 -0 -0 -0 -0 0 0 0 0 0 0 0 0 0 0 0 0 0 0 0 0 0 0 0 0 0 0 0 0 0 0 0
0 0 0 0 0 0 0 0 0 0 0 0 0 0 0 0 0 -0 -0 -0 -0 -0 0 0 0 0 0 0 0 0 0 -0 0 0 0 0 0 0 0 0 0 0 0 0 0 0 0 0 0
0 0 0 0 0 0 0 0 0 0 0 0 0 0 0 0 0 0 -0 -0 -0 0 0 0 0 0 0 0 0 0 0 0 0 0 0 0 0 0 0 0 0 0 0 0 0 0 0 0 0
0 0 0 0 0 0 0 0 0 0 0 0 0 0 0 0 0 0 0 0 0 0 0 0 0 0 0 0 0 0 0 0 0 0 0 0 0 0 0 0 0 0 0 0 0 0 0 0 0
Wind_Speed
4 3 1 1 3 4 1 2 2 1 1 1 3 4 3 2 2 2 2 9 14 14 11 15 18 18 18 17 17 17 17 16 16 16 15 14 14 13 13 12 11 10 10 10 10 10 10 11 11
3 3 1 2 4 2 3 2 3 3 4 4 3 3 3 2 1 4 5 9 13 13 10 12 18 18 18 17 17 16 16 16 15 15 14 14 13 13 12 11 11 10 10 10 10 10 10 10 10
3 2 2 3 2 2 3 2 4 3 5 4 2 2 1 1 3 4 6 12 12 10 9 12 19 18 18 17 16 16 15 15 15 14 13 13 12 12 11 11 10 10 10 10 10 10 10 10 9
2 2 3 3 1 4 3 3 3 4 4 3 4 2 1 2 2 5 12 14 12 9 8 12 18 17 17 16 16 15 14 14 14 13 12 12 11 11 10 10 10 9 9 9 9 9 9 9 8
3 3 4 2 4 4 3 2 3 4 4 3 4 3 1 3 5 11 13 14 13 10 8 10 17 17 16 16 15 14 14 13 13 12 11 11 10 10 10 9 9 8 8 8 8 8 8 7 7
4 4 3 1 4 3 2 1 1 2 2 3 4 3 1 2 7 11 11 11 11 10 8 9 16 16 15 15 15 14 13 13 12 12 11 10 9 9 9 8 8 7 7 7 7 7 7 6 5
4 4 1 2 3 4 1 0 1 2 1 2 4 4 2 3 6 9 9 10 9 8 7 6 8 11 14 14 14 13 13 12 12 11 11 10 9 8 8 8 7 6 6 6 6 6 5 5 4
4 4 0 2 3 4 1 1 1 2 1 2 3 5 4 5 8 10 9 9 8 6 5 5 5 5 6 7 12 13 13 12 11 11 10 10 9 8 8 6 6 6 6 5 5 5 4 4 3
4 4 2 4 4 4 0 1 1 1 3 3 2 2 5 11 11 11 10 8 7 7 4 5 5 5 4 4 8 9 11 10 10 8 10 8 3 3 3 5 6 6 6 6 5 5 4 3 2
4 3 6 5 4 3 0 0 1 1 2 2 4 5 10 11 12 12 11 11 10 8 6 4 5 5 5 4 3 2 3 4 3 2 3 3 2 1 3 3 6 6 6 6 6 5 4 2 0
5 6 4 4 3 2 1 0 0 2 1 3 5 10 12 11 10 10 9 9 8 7 6 5 5 5 5 3 3 2 2 2 2 3 3 3 2 1 0 0 1 2 3 2 2 2 1 1 1
4 4 4 2 1 1 1 1 1 1 1 1 6 10 12 12 11 11 10 8 7 7 6 5 5 5 5 3 3 3 2 2 2 2 3 2 2 1 1 1 0 0 0 1 0 0 1 1 1
3 3 1 0 2 2 3 2 2 1 2 4 7 10 11 10 8 7 7 6 7 6 5 5 5 5 5 3 2 3 2 2 3 2 2 3 2 2 1 1 1 0 0 1 1 1 0 1 1
2 1 0 1 1 1 3 1 2 1 3 5 6 7 8 8 8 8 8 7 6 6 5 5 5 5 5 3 3 3 2 3 3 2 2 3 2 2 1 1 1 0 0 1 1 1 1 0 0
1 1 2 1 0 1 3 2 0 1 3 4 5 7 7 6 7 7 7 7 6 5 4 5 6 5 5 4 3 3 3 3 2 2 2 3 2 2 2 2 1 0 0 1 1 1 1 0 0
2 2 1 2 0 0 3 1 1 1 3 3 4 7 7 5 4 5 6 6 5 5 4 4 5 6 5 5 4 3 3 3 2 2 2 3 3 3 2 2 1 1 1 2 1 1 1 1 1
3 1 3 3 0 1 2 2 1 1 3 4 3 5 6 5 4 4 5 6 6 5 5 4 5 6 6 6 4 4 3 3 2 2 2 2 3 3 3 2 1 2 2 2 1 1 1 0 1
3 2 3 3 1 2 1 1 1 1 4 3 3 4 5 5 4 4 5 5 5 5 5 5 5 5 6 5 4 3 3 2 2 2 2 2 2 3 3 2 2 2 2 2 1 2 2 1 1
3 3 5 4 0 2 1 1 1 1 3 3 3 4 5 4 4 5 5 5 6 6 6 5 5 4 5 4 3 3 2 2 2 1 2 2 2 3 3 2 2 2 2 2 2 2 2 2 1
3 3 4 2 1 2 1 1 1 2 3 3 5 6 6 5 4 4 5 4 5 6 6 6 5 5 4 3 3 3 3 2 2 2 2 2 2 2 2 3 2 2 2 2 2 2 2 2 2
4 5 5 3 2 3 2 2 1 1 1 2 3 5 6 8 7 6 6 4 5 6 7 6 5 5 4 5 4 4 3 3 2 2 1 2 1 2 2 3 2 2 2 2 1 2 2 1 1
4 4 5 4 3 1 1 2 4 2 3 4 5 6 7 7 7 7 7 6 6 6 6 6 5 5 4 5 5 5 4 3 2 1 1 2 2 2 2 3 3 2 2 1 1 2 1 2 1
3 3 4 3 3 1 1 1 6 1 4 7 8 8 9 9 9 9 8 7 6 6 6 5 5 4 4 4 5 5 4 3 2 2 3 3 3 3 2 3 2 2 2 2 1 2 2 1 1
5 6 6 5 5 1 2 2 6 5 8 7 8 9 9 9 9 8 6 5 5 5 5 6 6 4 4 5 5 6 6 5 4 3 3 2 2 2 3 3 3 2 2 2 1 1 2 1 1
4 6 4 4 4 4 1 2 9 7 7 9 11 11 10 9 9 9 8 8 7 7 7 6 6 5 5 5 5 5 6 6 5 4 3 2 1 1 1 2 2 1 1 1 2 1 1 1 1
5 7 7 4 4 4 2 5 8 4 4 5 7 8 9 9 9 10 10 10 9 9 8 7 7 6 5 5 5 4 5 4 3 4 3 3 2 2 1 1 1 1 1 1 1 1 1 1 1
6 3 5 7 2 1 4 6 8 1 2 4 6 7 9 10 10 10 10 10 9 10 9 9 8 6 6 6 5 5 5 4 4 3 3 2 2 2 2 2 1 1 0 1 1 1 1 1 2
5 8 6 6 5 2 5 5 5 5 6 6 7 10 10 10 10 10 10 10 9 9 8 7 8 8 6 6 6 5 5 5 4 4 4 3 3 2 2 2 2 1 1 1 1 1 1 1 2
4 4 5 4 4 5 3 8 8 9 9 10 11 11 11 12 11 10 9 9 8 7 7 7 7 7 6 7 6 5 5 5 4 4 4 4 3 3 3 3 2 2 2 2 2 2 2 3 3
4 7 8 6 4 4 4 9 5 7 8 9 11 10 10 11 11 9 9 8 8 9 8 8 8 8 7 7 6 6 5 5 5 4 4 4 4 3 3 3 3 3 3 3 3 4 3 4 4
Wind_Direction
184 162 151 104 57 48 293 237 205 201 142 133 122 127 135 157 192 238 128 141 137 144 151 152 149 144 140 137 135 134 134 133 133 133 134 134 134 134 133 131 128 124 121 118 114 113 110 107 104
141 155 136 60 74 29 290 219 201 195 165 136 97 101 112 177 121 115 131 141 140 144 146 151 150 147 144 141 140 139 139 139 138 138 138 138 137 136 135 132 130 127 125 121 118 117 114 110 107
153 182 89 66 89 193 262 231 191 158 145 141 129 94 112 193 134 147 148 141 136 140 142 155 151 149 147 146 145 145 144 144 144 143 142 142 141 140 137 135 133 131 129 126 124 121 118 114 110
126 57 56 63 275 241 239 251 173 150 155 161 144 123 98 4 151 143 142 143 138 138 142 157 152 152 151 150 150 149 148 148 148 147 147 147 146 144 142 140 138 136 134 130 127 124 121 116 110
66 76 56 13 275 268 263 255 185 165 154 146 140 134 99 5 102 130 140 145 145 141 144 154 154 154 154 154 155 154 153 152 151 151 151 152 152 151 148 146 142 141 141 137 133 130 125 119 110
62 67 76 290 281 281 274 264 123 116 135 128 135 136 94 86 123 136 139 142 143 141 141 148 155 156 157 158 159 159 158 158 158 158 159 160 160 158 156 154 152 151 148 147 143 139 133 124 112
108 101 160 237 279 292 281 80 122 133 136 157 145 132 131 130 131 130 127 127 131 131 132 137 150 156 160 164 164 164 164 165 165 165 167 168 168 167 167 165 165 164 163 162 160 155 149 139 126
133 106 303 259 250 267 280 55 82 118 144 112 117 150 171 157 134 123 123 125 131 129 125 126 132 137 149 163 171 170 170 170 171 171 173 175 174 175 177 172 177 180 179 182 182 179 171 162 152
110 81 235 232 219 246 241 65 4 71 105 88 72 130 140 137 135 130 132 132 138 140 129 130 134 133 135 150 175 174 173 174 174 176 182 177 161 161 179 189 195 197 197 200 202 202 198 193 186
113 158 229 226 210 215 157 107 204 100 83 94 90 98 125 138 143 147 152 154 158 159 154 147 145 139 139 161 155 150 158 156 151 149 160 132 125 168 189 205 212 216 215 218 214 216 216 204 163
165 200 237 254 233 186 141 173 120 135 221 205 162 146 144 150 151 156 159 159 162 162 164 160 152 144 144 146 139 134 124 125 127 135 134 126 124 137 175 155 230 233 222 222 224 219 193 164 183
180 241 232 265 52 105 157 157 90 104 238 201 155 148 148 156 162 161 160 164 162 162 165 156 150 148 149 142 144 140 133 131 130 136 142 137 134 139 165 160 185 160 133 168 152 165 179 184 218
203 249 269 276 64 94 98 96 108 58 65 97 128 140 151 155 161 155 155 158 157 160 160 154 153 152 146 138 143 135 134 136 134 126 137 142 140 152 150 119 111 129 131 146 142 133 157 190 245
220 182 51 44 75 95 120 97 76 322 91 111 131 146 152 150 156 153 155 161 166 159 153 145 149 147 135 134 133 130 131 125 113 114 134 134 137 139 120 89 57 51 180 165 157 156 165 203 257
52 63 4 346 85 161 123 44 67 233 116 121 136 137 136 136 147 158 163 163 163 150 139 146 152 139 134 129 129 125 121 114 110 118 125 131 137 134 123 109 91 341 347 117 112 97 77 41 322
38 47 334 283 179 198 120 242 261 153 137 134 129 127 123 113 128 143 151 149 144 136 135 142 141 125 125 122 121 115 112 111 112 111 108 118 122 122 116 114 111 93 82 85 98 80 75 31 347
26 350 289 300 341 83 115 225 262 167 144 133 118 119 122 117 115 119 130 136 139 136 139 129 118 125 124 118 113 108 106 106 108 105 104 106 110 115 113 109 91 86 81 72 85 75 86 47 331
252 264 275 274 298 83 107 217 227 167 152 141 122 124 131 134 139 129 119 127 126 125 125 125 119 122 117 109 102 91 87 85 87 94 103 111 111 112 108 103 97 97 91 76 72 81 63 49 336
209 228 263 272 229 109 129 171 220 171 141 143 151 154 153 152 139 135 124 126 133 129 129 130 131 129 126 122 123 120 118 102 86 91 101 105 112 112 110 106 99 99 103 107 112 103 68 34 7
208 227 258 296 71 103 109 304 233 180 188 182 173 170 169 153 139 145 138 149 149 143 140 140 144 138 136 130 125 122 120 110 95 64 65 73 102 114 121 120 117 110 105 91 83 94 94 35 28
221 198 214 196 76 59 79 348 255 234 196 191 179 169 166 163 166 163 156 156 149 152 153 154 148 139 134 126 110 94 80 68 62 52 45 27 74 111 114 121 118 112 111 108 93 103 115 97 29
239 219 177 145 123 302 105 257 266 212 212 209 197 184 181 175 175 178 169 165 164 162 148 141 140 136 132 131 129 131 131 131 146 131 93 45 52 90 114 123 124 120 116 121 119 107 114 124 95
185 82 92 101 121 66 32 173 278 181 216 222 206 197 194 184 181 184 180 174 169 155 142 138 139 134 133 132 135 128 121 125 116 102 90 67 47 56 88 114 124 128 129 133 114 108 110 127 153
126 74 62 55 71 1 239 184 267 216 210 207 201 200 195 185 179 177 173 163 157 147 143 146 143 141 141 137 136 139 138 138 132 125 115 89 60 49 64 90 99 115 126 139 141 136 137 148 159
100 93 36 358 5 257 253 223 253 239 211 195 192 196 192 185 177 175 175 174 170 167 165 159 155 155 152 143 142 147 149 150 153 153 147 138 116 92 77 92 96 103 134 150 145 142 158 174 183
175 143 157 201 230 277 296 247 256 255 213 191 182 180 178 182 183 185 187 183 180 177 174 168 169 164 161 154 155 153 153 150 154 159 156 159 165 176 172 143 135 143 158 147 138 145 209 201 216
141 160 155 129 139 296 281 282 299 228 192 181 176 174 184 186 187 189 186 184 183 182 182 178 174 170 171 168 160 161 162 162 164 161 157 162 178 186 178 175 177 199 191 165 154 196 239 230 235
132 138 106 122 145 255 292 275 250 227 208 195 191 193 195 189 189 190 188 187 187 185 179 173 174 178 176 172 172 175 176 175 168 162 174 183 193 190 180 192 205 220 225 212 198 227 241 240 253
118 107 109 112 147 157 250 271 226 205 196 193 200 198 194 192 193 194 192 188 181 174 172 176 176 173 174 178 178 172 176 174 171 178 190 192 196 196 203 214 220 231 237 231 224 243 244 245 257
161 165 150 152 197 173 181 266 263 206 197 190 196 197 194 193 193 191 186 178 177 179 180 181 180 181 183 178 174 177 173 170 178 193 199 195 202 210 215 218 229 241 241 236 235 252 249 245 254